When you browse on this site, cookies collect data to enhance your experience and personalize the content and advertising you see.
Visit our Privacy Policy to learn more. By continuing to use the site, you agree to this use of cookies and data.
  • In Austria
  • List of Countries
  • For 7 days
  • Water Temperature
  • Weather Map
  • News
  • Weather Widgets
  • user-avatar
    Login

    Hourly Weather Altach

    Today, 8 April, Wednesday

    Time Temperature Precipitation Wind Pressure Humidity
    00:00 +9°C° 0 mm 2 mps 730 mmHg 73%
    01:00 +9°C° 0 mm 2 mps 730 mmHg 72%
    02:00 +8°C° 0 mm 2 mps 730 mmHg 71%
    03:00 +8°C° 0 mm 2 mps 730 mmHg 71%
    04:00 +8°C° 0 mm 2 mps 730 mmHg 70%
    05:00 +8°C° 0 mm 2 mps 730 mmHg 69%
    06:00 +10°C° 0 mm 1 mps 730 mmHg 67%
    07:00 +10°C° 0 mm 1 mps 730 mmHg 66%
    08:00 +13°C° 0 mm 1 mps 730 mmHg 60%
    09:00 +15°C° 0 mm 1 mps 729 mmHg 54%
    10:00 +19°C° 0 mm 1 mps 729 mmHg 47%
    11:00 +20°C° 0 mm 1 mps 729 mmHg 47%
    12:00 +20°C° 0 mm 1 mps 729 mmHg 46%
    13:00 +21°C° 0 mm 1 mps 728 mmHg 45%
    14:00 +21°C° 0 mm 1 mps 728 mmHg 46%
    15:00 +21°C° 0 mm 1 mps 728 mmHg 48%
    16:00 +21°C° 0 mm 1 mps 728 mmHg 49%
    17:00 +19°C° 0 mm 1 mps 727 mmHg 58%
    18:00 +15°C° 0 mm 1 mps 727 mmHg 67%
    19:00 +12°C° 0 mm 0 mps 727 mmHg 76%
    20:00 +12°C° 0 mm 1 mps 727 mmHg 78%
    21:00 +12°C° 0 mm 1 mps 727 mmHg 79%
    22:00 +11°C° 0 mm 1 mps 728 mmHg 81%
    23:00 +11°C° 0 mm 1 mps 728 mmHg 81%

    Tomorrow, 9 April, Thursday

    Time Temperature Precipitation Wind Pressure Humidity
    00:00 +11°C° 0 mm 1 mps 728 mmHg 82%
    01:00 +10°C° 0 mm 1 mps 728 mmHg 82%
    02:00 +10°C° 0 mm 1 mps 728 mmHg 83%
    03:00 +10°C° 0 mm 1 mps 727 mmHg 83%
    04:00 +9°C° 0 mm 1 mps 727 mmHg 84%
    05:00 +10°C° 0 mm 1 mps 727 mmHg 82%
    06:00 +10°C° 0 mm 0 mps 728 mmHg 81%
    07:00 +10°C° 0 mm 0 mps 728 mmHg 79%
    08:00 +13°C° 0 mm 1 mps 728 mmHg 73%
    09:00 +15°C° 0 mm 1 mps 728 mmHg 66%
    10:00 +18°C° 0 mm 1 mps 728 mmHg 59%
    11:00 +19°C° 0 mm 1 mps 727 mmHg 57%
    12:00 +20°C° 0 mm 1 mps 727 mmHg 54%
    13:00 +19°C° 0 mm 2 mps 727 mmHg 51%
    14:00 +19°C° 0 mm 2 mps 727 mmHg 53%
    15:00 +19°C° 0 mm 2 mps 727 mmHg 55%
    16:00 +19°C° 0 mm 2 mps 727 mmHg 58%
    17:00 +17°C° 0 mm 2 mps 727 mmHg 66%
    18:00 +15°C° 0 mm 2 mps 726 mmHg 74%
    19:00 +13°C° 0 mm 1 mps 726 mmHg 82%
    20:00 +12°C° 0 mm 1 mps 727 mmHg 83%
    21:00 +12°C° 0 mm 1 mps 727 mmHg 85%
    22:00 +11°C° 0 mm 1 mps 727 mmHg 87%
    23:00 +10°C° 0 mm 1 mps 727 mmHg 87%

    Day after tomorrow, 10 April, Friday

    Time Temperature Precipitation Wind Pressure Humidity
    00:00 +10°C° 0 mm 1 mps 727 mmHg 87%
    01:00 +10°C° 0 mm 1 mps 727 mmHg 87%
    02:00 +9°C° 0 mm 1 mps 727 mmHg 88%
    03:00 +9°C° 0 mm 1 mps 727 mmHg 88%
    04:00 +9°C° 0 mm 1 mps 727 mmHg 88%
    05:00 +10°C° 0 mm 1 mps 727 mmHg 85%
    06:00 +10°C° 0 mm 1 mps 727 mmHg 83%
    07:00 +11°C° 0 mm 1 mps 728 mmHg 80%
    08:00 +13°C° 0 mm 1 mps 728 mmHg 73%
    09:00 +16°C° 0 mm 1 mps 728 mmHg 65%
    10:00 +19°C° 0 mm 1 mps 728 mmHg 58%
    11:00 +20°C° 0 mm 1 mps 727 mmHg 55%
    12:00 +21°C° 0 mm 1 mps 727 mmHg 51%
    13:00 +21°C° 0 mm 2 mps 727 mmHg 48%
    14:00 +21°C° 0 mm 2 mps 727 mmHg 49%
    15:00 +20°C° 0 mm 2 mps 726 mmHg 51%
    16:00 +20°C° 0 mm 2 mps 726 mmHg 52%
    17:00 +18°C° 0 mm 2 mps 726 mmHg 62%
    18:00 +16°C° 0 mm 1 mps 726 mmHg 72%
    19:00 +14°C° 0 mm 1 mps 725 mmHg 82%
    20:00 +13°C° 0 mm 1 mps 726 mmHg 84%
    21:00 +12°C° 0 mm 1 mps 726 mmHg 86%
    22:00 +12°C° 0 mm 1 mps 726 mmHg 88%
    23:00 +11°C° 0 mm 1 mps 726 mmHg 88%

    11 April, Saturday

    Time Temperature Precipitation Wind Pressure Humidity
    00:00 +11°C° 0 mm 1 mps 726 mmHg 89%
    01:00 +10°C° 0 mm 1 mps 726 mmHg 90%
    02:00 +10°C° 0 mm 1 mps 726 mmHg 90%
    03:00 +10°C° 0 mm 1 mps 726 mmHg 90%
    04:00 +10°C° 0 mm 1 mps 726 mmHg 91%
    05:00 +10°C° 0 mm 0 mps 727 mmHg 88%
    06:00 +10°C° 0 mm 0 mps 727 mmHg 86%
    07:00 +11°C° 0 mm 0 mps 727 mmHg 84%
    08:00 +14°C° 0 mm 1 mps 727 mmHg 76%
    09:00 +16°C° 0 mm 1 mps 727 mmHg 68%
    10:00 +19°C° 0 mm 1 mps 727 mmHg 59%
    11:00 +20°C° 0 mm 1 mps 726 mmHg 56%
    12:00 +20°C° 0 mm 2 mps 726 mmHg 53%
    13:00 +20°C° 0 mm 2 mps 726 mmHg 49%
    14:00 +20°C° 0 mm 2 mps 726 mmHg 49%
    15:00 +20°C° 0 mm 2 mps 725 mmHg 49%
    16:00 +21°C° 0 mm 1 mps 725 mmHg 49%
    17:00 +19°C° 0 mm 1 mps 725 mmHg 59%
    18:00 +16°C° 0 mm 1 mps 725 mmHg 69%
    19:00 +13°C° 0 mm 0 mps 725 mmHg 79%
    20:00 +13°C° 0 mm 1 mps 725 mmHg 81%
    21:00 +13°C° 0 mm 1 mps 725 mmHg 82%
    22:00 +12°C° 0 mm 1 mps 725 mmHg 84%
    23:00 +12°C° 0 mm 1 mps 725 mmHg 84%

    12 April, Sunday

    Time Temperature Precipitation Wind Pressure Humidity
    00:00 +12°C° 0 mm 1 mps 725 mmHg 84%
    01:00 +11°C° 0 mm 1 mps 725 mmHg 83%
    02:00 +11°C° 0 mm 1 mps 725 mmHg 84%
    03:00 +11°C° 0 mm 1 mps 725 mmHg 84%
    04:00 +11°C° 0 mm 1 mps 724 mmHg 84%
    05:00 +12°C° 0 mm 1 mps 724 mmHg 82%
    06:00 +13°C° 0 mm 1 mps 724 mmHg 80%
    07:00 +14°C° 0 mm 1 mps 724 mmHg 78%
    08:00 +15°C° 0.1 mm 1 mps 724 mmHg 74%
    09:00 +16°C° 0.1 mm 1 mps 724 mmHg 70%
    10:00 +18°C° 0.1 mm 1 mps 723 mmHg 66%
    11:00 +19°C° 0.3 mm 1 mps 723 mmHg 63%
    12:00 +20°C° 0.3 mm 1 mps 722 mmHg 59%
    13:00 +21°C° 0.3 mm 1 mps 722 mmHg 55%
    14:00 +21°C° 0.6 mm 1 mps 721 mmHg 56%
    15:00 +21°C° 0.6 mm 1 mps 720 mmHg 56%
    16:00 +20°C° 0.6 mm 1 mps 720 mmHg 57%
    17:00 +19°C° 0.3 mm 1 mps 719 mmHg 63%
    18:00 +16°C° 0.3 mm 1 mps 719 mmHg 69%
    19:00 +14°C° 0.3 mm 2 mps 719 mmHg 75%
    20:00 +14°C° 0.2 mm 2 mps 719 mmHg 77%
    21:00 +13°C° 0.2 mm 2 mps 719 mmHg 79%
    22:00 +13°C° 0.2 mm 2 mps 719 mmHg 82%
    23:00 +12°C° 0 mm 2 mps 719 mmHg 83%

    13 April, Monday

    Time Temperature Precipitation Wind Pressure Humidity
    00:00 +10°C° 0 mm 2 mps 718 mmHg 84%
    01:00 +10°C° 0 mm 2 mps 718 mmHg 85%
    02:00 +9°C° 0 mm 2 mps 718 mmHg 85%
    03:00 +10°C° 0 mm 1 mps 717 mmHg 84%
    04:00 +10°C° 0 mm 1 mps 717 mmHg 83%
    05:00 +10°C° 0 mm 1 mps 717 mmHg 81%
    06:00 +11°C° 0 mm 1 mps 717 mmHg 79%
    07:00 +11°C° 0 mm 1 mps 718 mmHg 77%
    08:00 +12°C° 0 mm 1 mps 718 mmHg 73%
    09:00 +13°C° 0 mm 2 mps 718 mmHg 69%
    10:00 +14°C° 0 mm 2 mps 718 mmHg 65%
    11:00 +14°C° 0 mm 2 mps 718 mmHg 66%
    12:00 +14°C° 0 mm 2 mps 718 mmHg 67%
    13:00 +14°C° 0 mm 2 mps 718 mmHg 68%
    14:00 +14°C° 0.1 mm 2 mps 718 mmHg 70%
    15:00 +14°C° 0.1 mm 2 mps 718 mmHg 72%
    16:00 +14°C° 0.1 mm 2 mps 718 mmHg 75%
    17:00 +13°C° 0.1 mm 2 mps 719 mmHg 78%
    18:00 +12°C° 0.1 mm 1 mps 719 mmHg 81%
    19:00 +12°C° 0.1 mm 1 mps 719 mmHg 84%
    20:00 +12°C° 0.1 mm 1 mps 719 mmHg 85%
    21:00 +11°C° 0.1 mm 1 mps 720 mmHg 86%
    22:00 +11°C° 0.1 mm 1 mps 720 mmHg 87%
    23:00 +11°C° 0.6 mm 1 mps 720 mmHg 90%
    Show more